Location: Melizzano
(41.1500°N, 14.5000°E)
Time: 18:10:08
(UTC+00:00)

ATLAS CENTAUR R/B - Pass Details

Date: 11 May 2021
Orbit: 472 x 671 km, 64.6° (Epoch: 13 June)

Event Time Altitude Azimuth Distance (km) Brightness Sun altitude
Exits shadow 23:38:19 22° 358° (N) 1,125 3.5 -30.0°
Drops below altitude 10° 23:40:01 10° 16° (NNE) 1,700 4.7 -29.9°
Sets 23:42:23 0° 26° (NNE) 2,615 5.9 -29.8°
